Regional Weather Roundup
Issued by NWS Upton, NY

Current Version | Previous Version | Graphics & Text | Print | Product List | Glossary Off
Versions: 1 2 3 4 5 6 7 8 9 10 11 12 13 14 15 16 17 18 19 20 21 22 23 24 25 26 27 28 29 30 31 32 33 34 35 36 37 38 39 40 41 42 43 44 45 46 47 48 49 50

000
ASUS41 KOKX 292005
RWROKX

REGIONAL WEATHER ROUNDUP
NATIONAL WEATHER SERVICE NEW YORK NY
300 PM EST THU JAN 29 2015

NOTE: "FAIR" INDICATES FEW OR NO CLOUDS BELOW 12,000 FEET WITH NO
SIGNIFICANT WEATHER AND/OR OBSTRUCTIONS TO VISIBILITY.

NYZ071-072-176-178-NJZ106-104-292100-
NEW YORK CITY METRO AREA


CITY           SKY/WX    TMP DP  RH WIND       PRES   REMARKS
CENTRAL PARK   CLOUDY    31  15  52 S5        30.21S WCI  26
LAGUARDIA APRT CLOUDY    30  17  58 S9        30.20F WCI  22
KENNEDY INTL   CLOUDY    30  19  63 SE7       30.22F WCI  23
NEWARK/LIBERTY CLOUDY    30  12  47 SE5       30.20F WCI  25
BRNX BOT. GARD   N/A    N/A N/A N/A SW3       30.19S
TETERBORO      CLOUDY    31  13  47 S9        30.18F WCI  23
$$

NYZ177-179-078>081-292100-
LONG ISLAND NEW YORK

CITY           SKY/WX    TMP DP  RH WIND       PRES   REMARKS
FARMINGDALE    CLOUDY    29  16  58 S6        30.21S WCI  23
ISLIP          PTSUNNY   30  15  53 S7        30.19S WCI  23
SHIRLEY        SUNNY     30  19  63 S7        30.20F WCI  23
WESTHAMPTON    SUNNY     32  21  64 S6        30.21F WCI  26
MONTAUK POINT    N/A     34  22  61 CALM      30.22F
$$

NYZ052-065-067-292100-
HUDSON VALLEY

CITY           SKY/WX    TMP DP  RH WIND       PRES   REMARKS
WHITE PLAINS   CLOUDY    30  11  45 SE8       30.16S WCI  22
NEWBURGH       PTSUNNY   30  10  43 CALM      30.15F
MONTGOMERY     CLOUDY    28   3  34 CALM      30.13F
POUGHKEEPSIE   CLOUDY    30   5  34 CALM      30.15F
ALBANY         CLOUDY    28   3  34 S14G22    30.09F WCI  17
$$

NJZ001-105-106-008-010-013-015-019>022-104-292100-
NEW JERSEY

CITY           SKY/WX    TMP DP  RH WIND       PRES   REMARKS
NEWARK/LIBERTY CLOUDY    30  12  47 SE5       30.20F WCI  25
TETERBORO      CLOUDY    31  13  47 S9        30.18F WCI  23
CALDWELL       CLOUDY    30   8  39 S8        30.17F WCI  22
MORRISTOWN     CLOUDY    30   7  37 SW7       30.18F WCI  23
SOMERVILLE     CLOUDY    31   7  36 SE7       30.15F WCI  24
SUSSEX         CLOUDY    26   4  38 NE3       30.12F
ANDOVER          N/A     30   2  30 VRB3      30.11F
TRENTON        CLOUDY    30   9  41 S9        30.16F WCI  22
MILLVILLE      CLOUDY    33  16  49 S6        30.17F WCI  28
ATLANTIC CITY  CLOUDY    32  20  61 S7        30.20F WCI  26
WRIGHTSTOWN    CLOUDY    35  14  42 S3        30.15F
TOMS RIVER     CLOUDY    34  21  60 SE8       30.18F WCI  27
BELMAR         CLOUDY    32  16  51 SE8       30.18F WCI  25
$$

PAZ047>061-062-071-292100-
EASTERN PENNSYLVANIA

CITY           SKY/WX    TMP DP  RH WIND       PRES   REMARKS
PHILADELPHIA   CLOUDY    34  10  37 S7        30.18F WCI  28
ALLENTOWN      CLOUDY    30   5  34 S6        30.14F WCI  24
SCRANTON       CLOUDY    28   9  44 CALM      30.02F
$$

CTZ002-004>006-009-010-012-RIZ004-006-007-MAZ004-011-015-292100-
SOUTHERN NEW ENGLAND
 IN CT

CITY           SKY/WX    TMP DP  RH WIND       PRES   REMARKS
BRADLEY INTL   PTSUNNY   31   1  28 SW6       30.17F WCI  25
HARTFORD       SUNNY     30   3  31 SE6       30.19F WCI  24
DANBURY        PTSUNNY   31  -1  25 S7        30.17S WCI  24
WTRBRY/OXFORD  PTSUNNY   30   3  31 SE7       30.16S WCI  23
BRIDGEPORT     MOSUNNY   28  11  48 E5        30.20F WCI  23
MERIDEN        SUNNY     31   3  30 S5        30.18F WCI  26
NEW HAVEN      SUNNY     29  12  49 SE6       30.20F WCI  23
CHESTER        FAIR      32  12  43 S9        30.18F WCI  24
GROTON         SUNNY     29  19  66 SE3       30.21F
WILLIMANTIC    SUNNY     34   1  24 SE6       30.18F WCI  29

 IN RI

CITY           SKY/WX    TMP DP  RH WIND       PRES   REMARKS
PROVIDENCE     PTSUNNY   30  14  51 SE8       30.21F WCI  22
BLOCK ISLAND   SUNNY     30  18  59 SE6       30.20F WCI  24
WESTERLY       SUNNY     30  16  56 SE6       30.22F WCI  24

 IN MA

CITY           SKY/WX    TMP DP  RH WIND       PRES   REMARKS
BOSTON         MOSUNNY   30  18  60 CALM      30.21F
WORCESTER      SUNNY     30   0  27 SE8       30.13F WCI  22
WESTFIELD      MOSUNNY   28   3  34 S6        30.16F WCI  22
PROVINCETOWN   NOT AVBL
NANTUCKET      SUNNY     35  23  61 N6        30.19F WCI  30
$$

ANZ330-335-338-340-345-350-353-355-292100-
COASTAL MARINE OBSERVATIONS


STATION/POSITION TIME  SKY/WX   TEMP    WIND        PRES    VSBY  WAVE
                                AIR SEA DIR/SP/G                  HT/PER
                 (UTC)          (F)     (DEG/KT/KT) (MB)    (MI)  (FT/S)
NY HARB ENTRANCE 2000            31 40  170/  6/  8 1022.8          2/11
4S FIRE IS       NOT AVBL
20S FIRE ISLAND  1900               42              1023.4          2/10
23SW MTP         2000                                 N/A           2/11
HUDSON CANYON    NOT AVBL
EXECUTION ROCKS  1900            30 33   60/  4/  6   N/A
WESTERN LI SOUND 1900            28      60/  6/  8   N/A           0
CENTRAL LI SOUND NOT AVBL
EASTERN LI SOUND NOT AVBL
ROBBINS REEF     1900            27     170/  8/ 10 1021.9
$$


>>>>>>>>>>>>>>>>>>>>>>>>>>>> KEY <<<<<<<<<<<<<<<<<<<<<<<<<<<
>                                                          <
>     SKY/WX - SKY CONDITION/PRESENT WEATHER               <
>     TMP    - TEMPERATURE IN FAHRENHEIT                   <
>     DP     - DEWPOINT IN FAHRENHEIT                      <
>     RH     - RELATIVE HUMIDITY IN PERCENT                <
>     WIND   - DIRECTION AND SPEED IN MPH                  <
>     PRES   - MEAN SEA LEVEL PRESSURE IN INCHES OF HG     <
>     WCI    - WIND CHILL INDEX                            <
>     VSB    - VISIBILITY IN MILES                         <
>     HX     - HEAT INDEX                                  <
>     TC     - TEMPERATURE IN CELSIUS                      <
>     VRB    - VARIABLE WIND DIRECTION                     <
>                                                          <
>>>>>>>>>>>>>>>>>>>>>>>>>>>> KEY <<<<<<<<<<<<<<<<<<<<<<<<<<<





USA.gov is the U.S. government's official web portal to all federal, state and local government web resources and services.